Omaha, IA

6:06 AM CST on January 18, 2018 (GMT -0600)
Eppley Airfield

Weather History for KOMA - June, 2014

Change the Weather History Date:

Sunday, June 22, 2014

  Actual Average Record
Temperature  
Mean Temperature 75 °F 74 °F  
Max Temperature 82 °F 85 °F 100 °F (1988)
Min Temperature 68 °F 63 °F 46 °F (1972)
Degree Days  
Heating Degree Days 0 0  
Month to date heating degree days 6 15  
Since 1 June heating degree days 6 15  
Since 1 July heating degree days 6536 6165  
Cooling Degree Days 10 9  
Month to date cooling degree days 184 147  
Year to date cooling degree days 327 229  
Since 1 June cooling degree days 184 147  
Growing Degree Days 26 (Base 50)    
Moisture  
Dew Point 66 °F    
Average Humidity 69    
Maximum Humidity 84    
Minimum Humidity 54    
Precipitation  
Precipitation 0.04 in 0.13 in 4.07 in (1994)
Month to date precipitation 9.16 3.16  
Year to date precipitation 15.98 14.44  
Snow  
Snow 0.00 in 0.00 in - ()
Month to date snowfall 0.0 0.0  
Since 1 July snowfall 17.8 26.4  
Snow Depth 0.00 in    
Sea Level Pressure  
Sea Level Pressure 29.83 in    
Wind  
Wind Speed 10 mph (ENE)    
Max Wind Speed 28 mph    
Max Gust Speed 34 mph    
Visibility 10 miles    
Events Rain , Thunderstorm    
T = Trace of Precipitation, MM = Missing Value Source: NWS Daily Summary

Daily Weather History Graph

Daily Weather History Graph

Search for Another Location

Airport or City:

Trip Planner

Search our weather history database for the weather conditions in past years. The results will help you decide how hot, cold, wet, or windy it might be!

Date:

Astronomy

Jun. 22, 2014 Rise Set
Actual Time 5:50 AM CDT 9:00 PM CDT
Civil Twilight 5:16 AM CDT 9:34 PM CDT
Nautical Twilight 4:33 AM CDT 10:17 PM CDT
Astronomical Twilight 3:41 AM CDT 11:09 PM CDT
Moon 2:41 AM CDT (6/22) 4:40 PM CDT (6/22)
Length of Visible Light 16h 17m
Length of Day
15h 09m
Waning Crescent, 20% of the Moon is Illuminated
Jun 22
Waning Crescent
Jun 27
New
Jul 5
First Quarter
Jul 12
Full
Jul 18
Last Quarter

Hourly Weather History & Observations

Time (CDT) Temp. Heat Index Dew Point Humidity Pressure Visibility Wind Dir Wind Speed Gust Speed Precip Events Conditions
12:52 AM 77.0 °F - 69.1 °F 76% 29.83 in 10.0 mi SE 9.2 mph - N/A   Scattered Clouds
1:52 AM 75.9 °F - 69.1 °F 79% 29.80 in 10.0 mi SSE 11.5 mph - N/A   Mostly Cloudy
2:52 AM 75.9 °F - 69.1 °F 79% 29.79 in 10.0 mi South 6.9 mph - N/A   Overcast
3:52 AM 75.9 °F - 68.0 °F 76% 29.77 in 10.0 mi SSE 9.2 mph - N/A   Mostly Cloudy
4:52 AM 75.0 °F - 68.0 °F 79% 29.76 in 10.0 mi SSE 10.4 mph - N/A   Overcast
5:52 AM 77.0 °F - 68.0 °F 74% 29.79 in 10.0 mi SSW 11.5 mph - N/A   Overcast
6:15 AM 77.0 °F - 68.0 °F 74% 29.81 in 10.0 mi SW 12.7 mph - 0.00 in Rain , Thunderstorm Light Thunderstorms and Rain
6:34 AM 75.9 °F - 64.9 °F 69% 29.83 in 10.0 mi WNW 19.6 mph 27.6 mph 0.00 in   Overcast
6:41 AM 75.0 °F - 66.0 °F 73% 29.84 in 10.0 mi WNW 27.6 mph 33.4 mph 0.00 in   Overcast
6:52 AM 73.0 °F - 64.9 °F 76% 29.81 in 10.0 mi NNW 25.3 mph 31.1 mph 0.00 in   Overcast
7:52 AM 70.0 °F - 64.0 °F 81% 29.85 in 10.0 mi North 20.7 mph 25.3 mph N/A   Overcast
8:41 AM 71.1 °F - 62.1 °F 73% 29.85 in 10.0 mi NE 20.7 mph 27.6 mph 0.00 in Thunderstorm Thunderstorm
8:52 AM 70.0 °F - 62.1 °F 76% 29.84 in 10.0 mi NE 18.4 mph 27.6 mph 0.00 in Rain , Thunderstorm Light Thunderstorms and Rain
9:40 AM 69.1 °F - 63.0 °F 81% 29.89 in 10.0 mi NE 6.9 mph - 0.04 in Rain Light Rain
9:52 AM 69.1 °F - 64.0 °F 84% 29.86 in 10.0 mi NE 3.5 mph - 0.04 in Rain Light Rain
10:52 AM 70.0 °F - 64.9 °F 84% 29.84 in 10.0 mi South 9.2 mph - 0.00 in   Overcast
11:22 AM 72.0 °F - 66.9 °F 84% 29.86 in 10.0 mi SSE 9.2 mph - N/A   Overcast
11:38 AM 72.0 °F - 66.0 °F 81% 29.86 in 10.0 mi South 8.1 mph - N/A   Overcast
11:52 AM 73.0 °F - 66.0 °F 79% 29.84 in 10.0 mi South 10.4 mph - N/A   Overcast
12:52 PM 75.0 °F - 66.9 °F 76% 29.84 in 10.0 mi SSE 11.5 mph - N/A   Mostly Cloudy
1:52 PM 78.1 °F - 66.9 °F 68% 29.83 in 10.0 mi SSE 9.2 mph - N/A   Mostly Cloudy
2:52 PM 80.1 °F 81.9 °F 64.9 °F 60% 29.81 in 10.0 mi WNW 9.2 mph 16.1 mph N/A   Mostly Cloudy
3:52 PM 73.9 °F - 66.0 °F 76% 29.83 in 10.0 mi NNW 16.1 mph 24.2 mph N/A   Mostly Cloudy
4:52 PM 75.9 °F - 68.0 °F 76% 29.83 in 10.0 mi North 10.4 mph - 0.00 in   Mostly Cloudy
5:52 PM 79.0 °F - 64.9 °F 62% 29.81 in 10.0 mi NNE 11.5 mph - N/A   Mostly Cloudy
6:52 PM 80.1 °F 81.2 °F 62.1 °F 54% 29.80 in 10.0 mi North 10.4 mph - N/A   Mostly Cloudy
7:52 PM 78.1 °F - 62.1 °F 58% 29.80 in 10.0 mi North 9.2 mph - N/A   Mostly Cloudy
8:52 PM 75.9 °F - 64.0 °F 67% 29.82 in 10.0 mi NNE 4.6 mph - N/A   Mostly Cloudy
9:52 PM 73.9 °F - 64.9 °F 73% 29.84 in 10.0 mi ENE 3.5 mph - N/A   Mostly Cloudy
10:52 PM 71.1 °F - 66.0 °F 84% 29.85 in 10.0 mi North 3.5 mph - N/A   Overcast
11:52 PM 72.0 °F - 66.0 °F 81% 29.85 in 10.0 mi Calm Calm - N/A   Overcast